Terug naar catalogus

COSMOS 2491 DEB

LostPO
NORAD 57551·DEBRIS·🇷🇺 Russia

Gelanceerd Dec 25, 2013 vanaf Plesetsk Cosmodrome

Loading…

Volgende Passages (komende 24 uur)

TLE

VerouderdSource: Space-Track

Epoch: Apr 21, 2026, 22:52 UTC

1 57551U 13076AN  26111.95326265  .00001865  00000-0  11401-1 0  9997
2 57551  82.4300 196.0778 0126761 151.5550 209.2531 12.52909790134739

Volg COSMOS 2491 DEB in realtime met AllMySat

Download on the App Store